Flag for USA

Past Weather in Santa Ana, California, USA — Yesterday and Last 2 Weeks

Now
70 °F

Passing clouds.


Feels Like: 71 °F
Forecast: 87 / 64 °F
Wind: 5 mph from Southwest

Location: John Wayne Airport-Orange County Airport
Current Time: Sep 27, 2020 at 8:51:55 pm
Latest Report: Sep 27, 2020 at 7:53 pm
Visibility: 10 mi
Pressure29.86 "Hg
Humidity: 79%
Dew Point: 63 °F
Location of Santa AnaLocation

Past Weather in Santa Ana — Graph

°F

Santa Ana Temperature Yesterday

Maximum temperature yesterday: 78 °F (at 2:53 pm)
Minimum temperature yesterday: 67 °F (at 3:53 am)
Average temperature yesterday: 71 °F

High & Low Weather Summary for the Past Weeks

 TemperatureHumidityPressure
High93 °F (Sep 17, 12:53 pm)87% (Sep 13, 5:53 am)30.04 "Hg (Sep 13, 5:53 am)
Low64 °F (Sep 13, 4:39 am)14% (Sep 17, 2:53 pm)29.79 "Hg (Sep 19, 5:53 pm)
Average72 °F67%29.91 "Hg
* Reported Sep 12 6:53 pm — Sep 27 6:53 pm, Santa Ana. Weather by CustomWeather, © 2020

Note: Actual official high and low records may vary slightly from our data, if they occured in-between our weather recording intervals... More about our weather records

Santa Ana Weather History for the Previous 24 Hours

Scroll right to see more
 ConditionsComfort  
Time TempWeatherWind HumidityBarometerVisibility
6:53 pm
Sun, Sep 27
70 °FPassing clouds.8 mph76%29.85 "Hg10 mi
5:53 pm72 °FScattered clouds.10 mph71%29.84 "Hg10 mi
4:53 pm73 °FScattered clouds.10 mph69%29.83 "Hg10 mi
3:53 pm75 °FScattered clouds.12 mph64%29.83 "Hg10 mi
3:24 pm76 °FScattered clouds.12 mph62%29.84 "Hg10 mi
2:53 pm76 °FPassing clouds.12 mph62%29.84 "Hg10 mi
1:53 pm77 °FPassing clouds.8 mph60%29.85 "Hg10 mi
12:53 pm76 °FScattered clouds.5 mph60%29.87 "Hg10 mi
11:53 am75 °FScattered clouds.7 mph62%29.89 "Hg10 mi
11:37 am74 °FPassing clouds.6 mph64%29.90 "Hg10 mi
10:53 am73 °FOvercast.No wind66%29.90 "Hg9 mi
10:11 am72 °FOvercast.3 mph71%29.90 "Hg9 mi
9:53 am71 °FOvercast.3 mph71%29.90 "Hg9 mi
8:53 am69 °FOvercast.3 mph76%29.89 "Hg9 mi
7:53 am69 °FOvercast.No wind76%29.88 "Hg9 mi
6:53 am68 °FOvercast.3 mph78%29.87 "Hg10 mi
5:53 am68 °FOvercast.No wind78%29.86 "Hg10 mi
4:53 am68 °FOvercast.No wind78%29.86 "Hg10 mi
3:53 am68 °FOvercast.5 mph78%29.87 "Hg10 mi
2:53 am69 °FOvercast.8 mph79%29.86 "Hg10 mi
1:53 am69 °FOvercast.3 mph79%29.87 "Hg10 mi
12:53 am69 °FOvercast.3 mph79%29.87 "Hg10 mi
11:53 pm
Sat, Sep 26
69 °FOvercast.3 mph79%29.87 "Hg10 mi
11:18 pm69 °FPassing clouds.3 mph79%29.87 "Hg10 mi
10:53 pm68 °FClear.3 mph82%29.87 "Hg10 mi
9:53 pm69 °FClear.6 mph79%29.87 "Hg10 mi
8:53 pm69 °FClear.7 mph79%29.86 "Hg10 mi
Weather by CustomWeather, © 2020

See weather overview